WESTFORD NEEDLES, 2530

Orbit data source: Space-Track

WESTFORD NEEDLES, 2530 is space debris in LEO originally from a launch on Thu, 09 May 1963 UTC launched from the Air Force Western Test Range (AFWTR). Debris objects in space refer to the collection of defunct objects orbiting the Earth. Examples of debris include non-operational satellites, rocket bodies, and fragments generated from explosions, collisions, or faulty payload assembly.

Loading next visibility...
Identifier
2530, 1963-014AJ
Orbit
LEO
Country
Flag of USUS
Related business
Manufacturer
Unknown
Mission
Spacecraft
Bus & Motor
Unknown
Mass
Unknown
Launch date (UTC)
1963-05-09 (63 years ago)
Launch vehicle
Unknown
Launch site
Air Force Western Test Range (AFWTR)
Object type
Payload
Rocket body
Debris
Shape & HBR
Unknown shape, 1.1 m
Radar Cross Section
Medium (>0.1 m² and <1 m²)

Expand to show TLE details & history
Last TLE update: 4 months ago

TLE from 4 months ago
0 WESTFORD NEEDLES
1 02530U 63014AJ  26058.26534343  .00001885  00000-0  74043+0 0  9994
2 02530  87.6001 164.2162 0535817 270.7868 106.3405  8.68329942930061
Epoch: 2026-02-27T06:22Z
TLE epoch observation values (Epoch: 2026-02-27T06:22:05.672Z)
Latitude
22.88919°
Longitude
-87.40178°
Altitude
3,799.34 km
Speed
6.205 km/s
True Right ascension
11h 00m 54s
True Declination
22° 48' 11"
Sunlit
Object was in full shadow at epoch
Visualization orbit readout
Latitude
Unknown
Longitude
Unknown
Altitude
Unknown
Speed
Unknown
Apparent Right ascension
Unknown
Apparent Declination
Unknown
Sunlit
N/A
Visualization observer readout
Local Sidereal Time
21:21:47
Azimuth
Unknown
Elevation
Unknown
Doppler factor
Unknown
Orbital elements
Apogee altitude
4,154.042 km
Perigee altitude
3,082.778 km
Semi-major axis
9,996.547 km
Eccentricity
0.05358
Inclination
87.6001°
RAAN
164.2162°
Arg. of periapsis
270.7868°
True anomaly
112.11368°
Mean anomaly
106.3405°
Eccentric anomaly
109.23905°
Mean motion
2.17154 °/min
Orbital period
165.78 mins
BSTAR
0.74043
Loading maneuver chart data...
Computing Atmospheric mass density...

Documentation

Showing up to 5 results
|